Walvis Bay Airport

Jump to: basic info | weather | frequencies | runways | comments

Related pages: nearby airports | nearby navaids | notams | map

Basic information (top)

Codes: WVB FYWB
Location: lon -22.979900, lat 14.645300, elev 299 ft / 91 m msl
Status: medium_airport
Scheduled airline service: no
Links: Wikipedia Mobile

Weather (top)

Current conditions (rec'd 2014/09/30 17:00Z):

FYWB 301700Z AUTO 26009KT //// // ////// 15/07 Q1016

Airport forecast (rec'd 2014/09/18 18:15Z):

TAF FYWB 181600Z 1818/1918 24015KT 1000 -SS 
      BECMG 1821/1823 9999 BKN010 PROB30 
      TEMPO 1901/1903 29005KT 0900 FG OVC006 
      BECMG 1908/1910 9999 SCT018 
      BECMG 1911/1913 05010KT CAVOK

Frequencies (top)

Verify before use: may be inaccurate or out of date.

APP: 122.5 MHz (APP)
TWR: 122.5 MHz (TWR)

Runways (top)

09/27: 7,001 x 98 ft (2,134 x 30 m) — paved — lighted

Latest comments (top)

No comments yet for Walvis Bay Airport

More... (top)

See also NOTAMs and nearby airports and navaids, or visit the Walvis Bay Airport page at the main OurAirports website..